Date,TemperatureHighF,TemperatureAvgF,TemperatureLowF,DewpointHighF,DewpointAvgF,DewpointLowF,HumidityHigh,HumidityAvg,HumidityLow,PressureMaxIn,PressureMinIn,WindSpeedMaxMPH,WindSpeedAvgMPH,GustSpeedMaxMPH,PrecipitationSumIn
2013-1-1,40,38,30,20,18,11,45,44,43,30.04,29.86,8,4,13,0.04
2013-1-2,34,28,24,15,10,7,47,45,44,30.22,29.98,9,2,14,0.00
2013-1-3,34,26,20,15,9,5,50,47,44,30.22,30.10,8,2,15,0.00
2013-1-4,38,34,26,18,14,8,48,44,43,30.13,30.01,12,5,22,0.00
2013-1-5,42,34,29,21,14,11,47,45,43,30.34,30.07,11,3,15,0.00
2013-1-6,48,38,32,25,20,13,58,47,41,30.22,29.98,10,2,13,0.00
2013-1-7,47,38,27,24,18,10,50,44,41,30.40,30.07,8,2,15,0.00
2013-1-8,49,33,23,26,15,8,60,47,41,30.42,30.34,8,1,10,0.00
2013-1-9,49,36,26,26,19,12,59,50,41,30.40,30.16,6,1,8,0.00
2013-1-10,51,40,33,28,20,14,48,43,41,30.54,30.28,9,2,13,0.00
2013-1-11,46,40,31,39,25,15,79,56,42,30.51,30.07,5,1,8,0.55
2013-1-12,53,45,41,39,34,27,79,67,42,30.16,30.07,4,0,8,0.00
2013-1-13,49,47,44,42,40,38,79,79,77,30.16,29.98,4,0,6,0.00
2013-1-14,54,50,42,46,35,23,79,60,40,30.31,29.92,8,2,11,0.04
2013-1-15,42,38,36,25,19,18,54,46,43,30.34,30.22,6,2,9,0.12
2013-1-16,37,36,34,29,25,21,76,66,55,30.19,29.83,6,2,13,0.75
2013-1-17,42,39,36,29,20,17,73,48,43,30.10,29.92,11,2,14,0.00
2013-1-18,36,31,26,18,12,8,53,45,44,30.48,30.01,13,3,19,0.00
2013-1-19,54,40,27,30,19,8,45,43,40,30.40,29.95,14,3,14,0.00
2013-1-20,55,41,30,31,20,11,50,43,40,30.07,29.75,14,5,28,0.00
2013-1-21,34,29,23,15,10,6,47,45,44,30.10,29.86,8,2,17,0.00
2013-1-22,25,19,13,7,2,-3,48,47,46,30.25,29.89,13,8,22,0.00
2013-1-23,21,14,10,4,-2,-5,50,48,47,30.28,30.16,13,3,19,0.00
2013-1-24,25,19,13,8,2,-2,50,48,46,30.45,30.13,17,3,24,0.00
2013-1-25,23,17,9,6,1,-6,50,48,46,30.45,30.07,6,1,14,0.00
2013-1-26,29,18,8,10,2,-7,53,48,45,30.40,30.07,9,2,14,0.00
2013-1-27,36,21,7,16,4,-8,50,47,44,30.54,30.40,10,2,12,0.00
2013-1-28,35,31,22,29,19,5,78,61,47,30.51,30.01,6,1,9,0.08
2013-1-29,52,43,33,38,31,26,79,64,42,30.13,30.01,6,2,8,0.00
2013-1-30,66,53,39,50,41,30,79,67,38,30.01,29.33,10,2,16,0.43
2013-1-31,62,43,29,52,25,10,77,48,42,29.83,29.10,24,9,29,0.94
2013-2-1,31,27,21,12,9,4,47,45,45,30.28,29.83,20,6,22,0.00
2013-2-2,28,23,16,12,6,0,54,47,45,30.31,30.01,9,3,15,0.00
2013-2-3,31,27,22,14,10,6,57,49,45,30.01,29.80,12,1,16,0.00
2013-2-4,32,26,18,13,8,2,48,46,45,30.04,29.86,13,4,20,0.00
2013-2-5,33,32,29,18,14,11,55,49,45,29.95,29.86,4,1,7,0.00
2013-2-6,39,31,23,19,14,7,62,49,43,30.34,29.92,10,2,15,0.00
2013-2-7,36,29,21,16,11,6,52,46,44,30.48,30.28,8,2,11,0.00
2013-2-8,36,34,33,25,20,14,73,56,45,30.25,29.69,10,4,15,0.16
2013-2-9,35,29,23,26,12,6,74,48,44,30.37,29.78,14,3,18,0.12
2013-2-10,44,28,13,22,10,-2,50,46,42,30.48,30.28,5,1,6,0.00
2013-2-11,48,40,33,42,30,14,79,68,44,30.31,29.66,6,1,15,0.28
2013-2-12,47,40,30,30,20,12,73,44,41,29.98,29.78,14,5,22,0.00
2013-2-13,46,35,24,24,17,8,66,48,42,29.95,29.66,7,1,9,0.00
2013-2-14,47,36,30,25,20,13,72,53,41,30.01,29.72,8,1,11,0.12
2013-2-15,57,41,28,32,22,13,59,48,38,30.01,29.89,11,2,15,0.04
2013-2-16,38,35,30,25,18,12,67,50,44,29.98,29.78,10,3,17,0.04
2013-2-17,33,27,21,14,9,4,47,46,45,30.10,29.75,19,8,27,0.00
2013-2-18,37,27,19,17,9,2,47,46,43,30.31,30.10,15,5,19,0.00
2013-2-19,44,36,26,33,20,8,69,51,42,30.19,29.69,11,3,17,0.24
2013-2-20,35,30,25,16,11,7,46,45,44,30.04,29.78,19,8,25,0.00
2013-2-21,36,29,24,16,11,6,46,45,44,30.31,30.04,15,7,22,0.00
2013-2-22,39,31,23,18,12,6,47,45,43,30.40,30.25,8,2,9,0.00
2013-2-23,45,40,35,39,31,17,79,71,46,30.25,29.80,5,2,9,0.04
2013-2-24,46,38,28,31,22,10,75,52,42,30.01,29.78,14,4,25,0.00
2013-2-25,45,34,25,23,15,8,47,44,42,30.22,30.04,10,2,13,0.00
2013-2-26,47,35,24,25,17,9,60,48,41,30.25,29.78,13,5,22,0.24
2013-2-27,51,44,38,39,29,23,76,57,41,29.78,29.48,17,5,22,0.16
2013-2-28,46,41,34,25,22,15,55,45,42,29.66,29.57,10,3,13,0.00
2013-3-1,44,37,28,22,18,14,58,47,42,29.80,29.66,10,3,16,0.00
2013-3-2,41,36,32,20,16,14,45,44,43,29.80,29.75,10,5,18,0.00
2013-3-3,37,33,26,17,14,9,46,45,44,29.80,29.72,11,5,17,0.00
2013-3-4,42,34,30,21,15,12,45,44,43,29.95,29.80,13,7,21,0.00
2013-3-5,52,39,31,28,18,12,45,43,41,30.04,29.92,10,3,14,0.00
2013-3-6,42,38,35,23,19,16,53,45,43,29.95,29.78,17,8,30,0.04
2013-3-7,47,40,37,24,20,17,44,43,41,30.10,29.95,17,6,20,0.00
2013-3-8,44,37,31,22,18,13,53,45,42,30.25,30.07,12,6,19,0.00
2013-3-9,64,43,27,38,22,9,47,42,37,30.31,30.22,8,2,14,0.00
2013-3-10,62,44,27,36,22,9,48,43,37,30.34,30.25,8,2,11,0.00
2013-3-11,61,49,39,35,30,20,72,48,37,30.28,30.04,8,2,11,0.00
2013-3-12,59,52,41,50,36,20,75,54,42,30.04,29.69,11,5,17,0.91
2013-3-13,49,40,32,26,20,15,53,44,41,29.95,29.83,14,5,19,0.00
2013-3-14,41,35,29,20,16,11,47,44,43,30.01,29.92,18,6,24,0.00
2013-3-15,52,40,26,28,19,8,46,43,40,30.01,29.72,14,5,18,0.00
2013-3-16,46,38,34,24,20,17,57,48,42,29.92,29.75,7,2,10,0.00
2013-3-17,40,34,27,20,16,12,58,48,43,30.28,29.92,9,2,13,0.16
2013-3-18,40,33,27,26,16,9,67,50,43,30.37,29.89,13,5,16,0.20
2013-3-19,52,41,36,29,26,17,75,56,41,29.89,29.69,13,4,19,0.31
2013-3-20,48,39,32,25,19,14,45,43,41,29.92,29.78,16,5,22,0.00
2013-3-21,39,34,29,20,15,10,59,46,43,29.83,29.69,11,4,17,0.00
2013-3-22,41,34,27,20,14,9,46,44,43,29.92,29.78,13,7,20,0.00
2013-3-23,49,39,32,26,19,13,45,43,41,29.95,29.86,15,6,23,0.00
2013-3-24,49,38,27,26,18,9,46,43,41,29.98,29.69,10,2,14,0.00
2013-3-25,39,37,34,27,21,17,68,54,43,29.69,29.48,8,2,15,0.35
2013-3-26,51,42,34,28,25,19,74,52,41,29.89,29.63,9,3,14,0.00
2013-3-27,52,40,29,28,21,14,56,46,40,30.04,29.89,13,3,26,0.00
2013-3-28,49,41,29,26,20,12,52,44,41,30.16,30.01,12,3,17,0.00
2013-3-29,53,43,30,29,22,12,47,43,40,30.19,30.10,8,2,16,0.00
2013-3-30,60,44,28,34,22,12,50,43,38,30.19,30.07,10,2,13,0.00
2013-3-31,58,45,32,42,27,15,78,50,38,30.13,29.72,9,3,13,0.08
2013-4-1,63,48,38,36,29,18,69,49,37,29.95,29.66,15,5,26,0.00
2013-4-2,45,37,27,24,17,9,46,44,42,30.10,29.95,15,5,22,0.00
2013-4-3,48,37,25,25,17,8,46,44,41,30.31,30.10,14,4,22,0.00
2013-4-4,57,39,26,32,18,8,46,43,38,30.40,30.10,9,2,10,0.00
2013-4-5,64,49,40,38,26,20,44,41,37,30.07,29.75,10,3,22,0.00
2013-4-6,57,45,35,32,23,15,44,42,38,30.31,30.01,8,2,15,0.00
2013-4-7,66,52,39,39,28,19,44,40,36,30.28,29.98,13,3,17,0.00
2013-4-8,81,62,44,49,36,24,48,38,33,30.07,29.95,8,2,10,0.00
2013-4-9,84,72,55,51,43,32,42,35,32,30.01,29.89,13,3,23,0.00
2013-4-10,88,72,58,54,44,34,60,38,31,29.92,29.75,10,2,27,0.83
2013-4-11,66,60,50,51,40,28,68,48,37,29.95,29.78,13,4,16,0.00
2013-4-12,50,46,44,35,32,27,69,57,42,29.92,29.69,10,5,17,0.63
2013-4-13,60,50,38,38,31,27,77,49,38,29.98,29.75,11,2,17,0.00
2013-4-14,63,52,38,37,29,20,54,41,37,30.16,29.98,11,3,17,0.00
2013-4-15,65,53,47,38,30,24,41,40,36,30.34,30.16,8,4,12,0.00
2013-4-16,72,60,47,43,35,27,47,39,35,30.34,30.10,9,3,14,0.00
2013-4-17,75,63,57,47,38,33,65,40,34,30.28,30.10,9,2,13,0.00
2013-4-18,62,57,53,47,36,30,67,45,38,30.28,30.04,11,4,12,0.04
2013-4-19,79,66,55,56,46,35,72,49,34,30.04,29.60,14,3,23,0.91
2013-4-20,58,52,46,38,29,24,55,42,38,30.31,29.72,17,6,23,0.12
2013-4-21,58,46,34,33,24,15,44,41,38,30.60,30.34,8,3,17,0.00
2013-4-22,59,46,34,34,24,16,50,42,38,30.60,30.45,12,4,19,0.00
2013-4-23,52,48,42,30,26,22,48,42,41,30.45,30.13,8,3,12,0.00
2013-4-24,74,58,38,45,34,22,56,42,35,30.13,29.80,8,3,13,0.00
2013-4-25,65,54,44,39,30,22,42,40,36,30.28,29.86,17,4,27,0.00
2013-4-26,66,52,37,39,29,19,50,41,36,30.42,30.28,9,2,13,0.00
2013-4-27,72,55,36,43,31,18,48,40,35,30.42,30.28,8,1,9,0.00
2013-4-28,74,58,42,44,33,22,47,39,34,30.31,30.19,7,2,13,0.00
2013-4-29,58,56,52,47,41,30,70,59,40,30.22,30.10,8,3,11,0.35
2013-4-30,72,59,49,46,39,26,74,48,35,30.31,30.16,13,4,16,0.04
2013-5-1,73,56,38,44,32,20,53,40,35,30.45,30.31,9,3,13,0.00
2013-5-2,76,58,40,46,34,23,54,40,34,30.45,30.31,9,2,12,0.00
2013-5-3,70,58,48,41,33,27,46,39,35,30.42,30.31,10,4,15,0.00
2013-5-4,74,57,40,44,33,23,54,41,34,30.37,30.19,10,2,12,0.00
2013-5-5,70,55,42,42,31,23,54,40,35,30.28,30.16,8,3,12,0.00
2013-5-6,73,57,46,44,35,25,57,43,35,30.25,30.10,9,3,11,0.00
2013-5-7,76,62,53,48,42,36,75,48,34,30.13,30.04,9,4,13,0.08
2013-5-8,72,64,60,54,46,37,76,55,35,30.04,29.92,8,2,10,0.24
2013-5-9,71,63,58,47,42,38,68,47,35,29.98,29.89,8,1,12,0.08
2013-5-10,83,68,52,51,44,36,63,43,32,30.01,29.89,8,1,14,0.59
2013-5-11,74,66,61,54,48,41,70,54,35,29.92,29.72,10,2,15,0.79
2013-5-12,65,59,46,51,37,24,68,44,36,29.98,29.72,15,3,23,0.04
2013-5-13,56,48,38,31,26,21,54,43,38,30.13,29.98,10,3,16,0.00
2013-5-14,63,49,34,37,27,18,56,42,37,30.16,30.01,9,2,15,0.00
2013-5-15,73,61,48,44,36,26,50,39,35,30.07,29.72,6,2,13,0.00
2013-5-16,82,67,55,55,45,38,75,46,32,29.86,29.72,6,1,12,0.08
2013-5-17,75,63,49,45,38,30,53,40,34,30.19,29.86,9,1,14,0.00
2013-5-18,69,62,56,44,38,32,59,42,36,30.28,30.19,6,2,11,0.00
2013-5-19,64,60,58,53,48,44,76,65,47,30.25,30.16,6,2,10,0.04
2013-5-20,80,68,59,54,50,45,77,55,34,30.16,29.98,6,1,9,0.00
2013-5-21,86,74,61,60,51,46,76,46,32,29.98,29.83,9,2,11,0.00
2013-5-22,89,77,66,59,52,49,72,45,31,29.92,29.80,8,2,13,0.00
2013-5-23,81,73,67,54,51,46,57,46,33,29.89,29.75,6,2,11,0.47
2013-5-24,67,56,47,54,38,25,70,51,40,30.04,29.72,10,3,20,0.16
2013-5-25,62,54,46,36,30,25,48,40,37,30.07,29.98,14,4,21,0.00
2013-5-26,70,58,47,42,33,25,42,39,35,30.22,30.04,17,3,18,0.00
2013-5-27,73,59,40,44,34,22,52,40,35,30.28,30.16,7,1,11,0.00
2013-5-28,65,59,52,54,43,30,75,56,38,30.22,30.10,5,0,7,0.28
2013-5-29,90,74,60,59,52,45,77,51,31,30.13,30.01,8,2,16,0.00
2013-5-30,92,79,64,56,51,45,59,38,30,30.16,30.07,8,1,13,0.00
2013-5-31,95,80,66,59,51,45,57,38,30,30.13,30.01,9,1,11,0.00
2013-6-1,93,80,66,58,51,47,58,38,31,30.04,29.89,8,1,11,0.00
2013-6-2,86,79,73,53,49,46,45,35,32,29.92,29.80,8,3,12,0.00
2013-6-3,82,73,65,59,51,42,69,47,33,29.89,29.80,4,1,9,0.51
2013-6-4,76,66,56,46,39,32,47,37,34,30.10,29.89,9,2,13,0.00
2013-6-5,79,66,50,48,40,32,52,39,33,30.22,30.07,8,1,8,0.00
2013-6-6,75,65,57,50,42,35,60,44,34,30.13,29.95,6,2,11,0.20
2013-6-7,66,64,62,58,54,48,76,72,60,29.95,29.63,8,3,18,3.07
2013-6-8,76,68,60,54,46,41,76,48,34,30.07,29.63,8,2,10,0.04
2013-6-9,83,70,57,51,45,41,57,42,33,30.19,30.07,5,1,9,0.00
2013-6-10,72,70,66,64,54,44,75,59,38,30.13,29.78,5,1,9,3.39
2013-6-11,80,73,65,60,50,43,74,46,34,29.78,29.69,15,4,18,0.04
2013-6-12,83,73,63,50,45,40,52,37,32,29.83,29.78,11,2,18,0.00
2013-6-13,78,70,62,56,45,40,69,42,35,29.83,29.39,6,1,11,0.35
2013-6-14,77,65,56,47,41,33,55,42,34,29.92,29.54,11,3,15,0.08
2013-6-15,81,68,54,49,43,38,58,41,33,30.04,29.92,7,1,13,0.00
2013-6-16,84,70,59,51,45,38,54,41,33,30.01,29.80,10,2,17,0.00
2013-6-17,87,75,64,53,49,44,57,41,32,29.92,29.83,6,1,11,0.00
2013-6-18,77,69,64,56,50,47,66,53,35,29.92,29.80,5,0,8,0.31
2013-6-19,79,68,58,54,44,38,66,42,33,30.16,29.89,8,1,12,0.00
2013-6-20,81,69,56,49,43,38,54,40,33,30.28,30.16,6,1,10,0.00
2013-6-21,85,70,56,52,43,35,50,37,32,30.31,30.22,5,1,9,0.00
2013-6-22,86,73,58,53,45,38,53,38,32,30.28,30.10,6,1,10,0.00
2013-6-23,88,76,64,54,49,43,54,39,32,30.19,30.04,6,1,11,0.00
2013-6-24,91,78,70,57,53,47,58,42,31,30.10,29.98,8,1,10,0.00
2013-6-25,92,77,65,56,50,47,59,41,31,30.01,29.86,8,1,13,0.04
2013-6-26,88,76,68,58,51,45,59,42,32,29.89,29.78,8,1,17,0.12
2013-6-27,89,77,70,60,56,50,68,50,32,29.83,29.57,6,1,13,1.02
2013-6-28,87,76,70,60,52,45,66,45,32,29.60,29.48,8,1,11,0.00
2013-6-29,88,76,66,59,50,45,70,42,32,29.72,29.51,6,1,10,0.00
2013-6-30,83,75,68,58,52,45,57,44,34,29.89,29.72,5,0,9,0.04
2013-7-1,79,75,70,63,57,50,70,55,37,30.01,29.86,5,1,13,2.01
2013-7-2,86,78,73,56,53,49,54,44,33,30.19,30.01,5,1,10,0.00
2013-7-3,87,78,71,57,53,51,58,43,32,30.25,30.16,8,1,10,0.00
2013-7-4,89,81,74,60,54,49,62,41,32,30.25,30.16,7,2,12,0.00
2013-7-5,91,82,73,60,54,50,62,39,31,30.22,30.10,8,2,14,0.00
2013-7-6,94,83,73,60,54,51,59,38,30,30.19,30.04,6,1,10,0.00
2013-7-7,93,81,72,58,54,49,55,41,31,30.10,29.95,8,1,10,0.35
2013-7-8,72,71,70,55,54,53,56,56,55,30.04,30.04,0,0,4,0.00
2013-7-9,79,77,75,55,53,49,50,44,36,30.04,30.01,0,0,3,0.00
2013-7-10,88,80,73,63,54,51,66,43,32,30.01,29.83,8,2,12,0.00
2013-7-11,85,78,74,59,51,46,55,40,32,29.92,29.83,6,1,10,0.00
2013-7-12,76,72,69,58,48,42,65,44,36,30.04,29.92,8,2,14,1.06
2013-7-13,87,77,69,62,56,49,72,52,32,30.31,30.04,6,1,12,0.98
2013-7-14,91,81,72,66,57,51,70,47,31,30.37,30.25,8,1,11,0.00
2013-7-15,94,82,70,58,54,50,56,40,30,30.28,30.13,6,1,9,0.00
2013-7-16,92,82,72,58,54,48,59,39,31,30.22,30.13,8,1,10,0.00
2013-7-17,95,83,72,58,55,50,57,40,30,30.22,30.07,5,1,9,0.00
2013-7-18,97,85,74,60,56,51,55,39,30,30.10,29.98,6,1,8,0.00
2013-7-19,96,86,77,75,63,54,68,47,27,30.01,29.83,8,1,12,0.00
2013-7-20,92,82,75,74,69,65,78,64,56,29.86,29.78,10,2,12,0.00
2013-7-21,90,80,73,72,68,65,86,68,56,29.95,29.83,5,1,9,0.00
2013-7-22,86,77,73,76,70,66,100,81,60,29.95,29.78,8,1,10,0.79
2013-7-23,85,77,71,74,70,66,100,82,60,29.78,29.60,5,1,8,2.13
2013-7-24,79,73,67,69,64,55,100,74,62,29.95,29.66,6,1,12,0.00
2013-7-25,72,66,61,60,55,51,74,68,64,30.04,29.95,8,2,11,0.00
2013-7-26,82,71,62,67,61,56,98,72,60,30.07,30.01,8,1,10,0.00
2013-7-27,86,74,61,70,64,58,100,73,58,30.04,29.92,5,1,9,0.00
2013-7-28,82,74,69,72,66,59,100,77,62,29.98,29.89,5,1,10,0.04
2013-7-29,83,73,64,69,64,56,100,76,58,30.13,29.95,6,2,10,0.04
2013-7-30,81,70,58,66,60,55,92,72,60,30.22,30.13,8,1,10,0.00
2013-7-31,83,72,59,68,62,56,94,72,58,30.16,30.04,4,0,6,0.00
2013-8-1,74,71,67,72,67,59,100,89,66,30.04,29.83,4,0,8,1.18
2013-8-2,85,74,68,70,66,60,100,78,58,29.95,29.83,8,2,13,0.00
2013-8-3,76,69,65,70,64,60,100,85,66,29.95,29.89,3,0,7,0.04
2013-8-4,78,70,61,64,61,54,100,77,62,30.01,29.89,8,2,14,0.00
2013-8-5,78,66,56,64,57,53,96,74,62,30.10,30.01,6,1,10,0.00
2013-8-6,78,67,56,64,59,54,100,76,62,30.10,30.04,8,1,12,0.00
2013-8-7,75,71,67,71,66,61,98,83,66,30.13,30.04,5,1,10,0.00
2013-8-8,87,77,69,73,70,66,100,81,60,30.07,29.98,5,1,13,0.04
2013-8-9,83,78,75,76,72,68,100,83,62,30.01,29.83,8,1,13,0.83
2013-8-10,84,75,68,75,67,62,100,78,60,30.07,29.89,4,0,8,0.00
2013-8-11,86,73,62,69,63,56,96,73,58,30.13,30.01,5,1,8,0.00
2013-8-12,86,75,69,71,67,63,100,78,58,30.04,29.92,8,1,8,0.00
2013-8-13,82,73,66,72,68,64,100,84,60,29.92,29.72,6,1,8,2.09
2013-8-14,71,65,58,69,54,49,96,70,66,29.92,29.78,7,2,13,0.00
2013-8-16,83,74,64,67,61,55,74,64,58,30.19,30.13,4,0,6,0.00
2013-8-17,83,69,56,67,60,54,96,73,58,30.28,30.22,4,0,8,0.00
2013-8-18,76,68,64,64,61,57,94,78,62,30.25,30.16,6,1,9,0.00
2013-8-19,77,68,61,67,62,58,100,81,64,30.16,30.07,6,1,8,0.00
2013-8-20,89,73,62,71,65,61,100,78,56,30.16,30.07,5,1,8,0.00
2013-8-21,90,75,62,72,66,60,100,76,56,30.22,30.07,5,0,8,0.00
2013-8-22,81,76,71,73,69,66,100,82,62,30.07,29.89,10,0,14,0.71
2013-8-23,76,70,63,71,64,60,100,82,62,30.10,29.92,3,0,9,0.00
2013-8-24,81,68,58,66,60,54,98,75,60,30.37,30.10,6,1,10,0.00
2013-8-25,82,67,53,67,58,50,98,75,60,30.42,30.25,0,0,0,0.00
2013-8-26,86,73,61,69,62,55,92,70,58,30.28,29.95,9,1,12,0.00
2013-8-27,88,77,68,71,67,62,100,73,56,29.95,29.86,6,1,10,0.00
2013-8-28,74,71,68,74,70,66,100,98,88,29.92,29.83,5,0,5,0.71
2013-8-29,82,74,70,71,68,62,100,83,62,30.04,29.89,6,1,8,0.00
2013-8-30,82,74,68,71,67,64,100,81,62,30.04,29.86,6,1,8,0.00
2013-8-31,87,77,70,74,70,66,100,80,60,29.89,29.80,6,1,10,0.00
2013-9-1,89,78,71,76,71,66,100,81,58,29.86,29.78,4,0,11,0.59
2013-9-2,82,76,71,74,70,64,100,85,62,29.80,29.72,4,0,8,0.00
2013-9-3,82,73,64,70,65,56,100,77,60,29.92,29.75,8,2,15,0.00
2013-9-4,81,68,58,66,59,55,98,74,60,30.04,29.92,6,1,10,0.00
2013-9-5,78,67,57,64,58,49,96,75,62,30.16,29.98,6,1,11,0.00
2013-9-6,73,61,50,60,52,45,90,72,62,30.28,30.16,8,1,9,0.00
2013-9-7,80,62,47,65,54,44,96,76,60,30.16,29.92,6,1,8,0.00
2013-9-8,81,70,60,66,60,50,98,74,60,30.07,29.86,8,1,13,0.00
2013-9-9,76,64,49,62,54,46,94,73,62,30.22,30.10,5,1,9,0.00
2013-9-10,88,76,68,72,68,60,94,76,58,30.19,30.07,5,1,10,0.00
2013-9-11,94,80,70,75,71,66,100,75,54,30.13,29.98,9,1,10,0.00
2013-9-12,88,77,70,73,69,66,100,79,58,30.01,29.72,8,1,14,0.08
2013-9-13,76,68,58,70,61,50,100,79,62,29.89,29.69,13,2,13,0.04
2013-9-14,64,57,49,53,49,43,94,75,68,30.16,29.89,9,2,14,0.00
2013-9-15,74,58,43,60,50,40,96,78,62,30.25,30.10,5,1,9,0.00
2013-9-16,71,62,56,62,56,48,100,83,64,30.25,30.04,5,1,10,0.04
2013-9-17,68,55,45,56,47,41,92,74,66,30.42,30.25,6,2,13,0.00
2013-9-18,72,55,40,59,48,39,98,78,64,30.37,30.19,4,0,8,0.00
2013-9-19,77,59,43,63,52,42,98,78,62,30.22,30.07,6,1,8,0.00
2013-9-20,80,64,50,65,56,48,100,77,60,30.10,29.98,4,0,10,0.00
2013-9-21,80,67,52,68,60,50,100,81,60,30.01,29.69,6,1,13,0.55
2013-9-22,68,62,51,64,55,44,100,80,66,29.95,29.69,11,2,12,0.24
2013-9-23,67,56,47,55,48,41,92,73,66,30.07,29.95,8,2,14,0.00
2013-9-24,73,55,40,60,48,38,98,78,64,30.10,29.92,6,1,11,0.00
2013-9-25,74,56,43,60,49,41,98,79,62,29.98,29.89,5,0,7,0.00
2013-9-26,74,60,47,62,53,45,100,79,62,30.10,29.95,4,0,8,0.00
2013-9-27,72,62,54,59,55,50,100,80,64,30.28,30.10,5,1,8,0.00
2013-9-28,75,62,53,61,55,48,100,78,62,30.34,30.25,6,2,12,0.00
2013-9-29,76,59,46,62,52,45,100,79,62,30.25,30.07,4,0,8,0.00
2013-9-30,74,59,46,61,52,45,100,79,62,30.10,29.98,6,1,8,0.00
2013-10-1,80,62,49,65,55,48,100,78,60,30.04,29.92,6,0,9,0.00
2013-10-2,85,67,52,68,58,51,100,76,58,30.04,29.95,8,1,11,0.00
2013-10-3,83,68,56,67,60,54,100,77,58,30.13,30.01,4,0,6,0.00
2013-10-4,86,71,60,70,63,58,100,76,58,30.07,29.98,7,1,9,0.00
2013-10-5,87,73,63,71,65,61,100,76,58,30.10,29.98,5,1,9,0.00
2013-10-6,80,71,66,70,66,62,100,86,62,30.07,29.95,9,2,11,0.04
2013-10-7,76,66,55,70,63,49,100,90,70,30.01,29.75,10,2,28,0.79
2013-10-8,68,56,46,56,50,46,100,82,66,30.31,30.01,10,1,11,0.00
2013-10-9,62,55,47,52,48,43,100,80,68,30.37,29.97,10,2,14,0.00
2013-10-10,60,57,53,58,54,47,100,90,72,30.25,30.04,12,3,13,0.39
2013-10-11,64,61,58,63,59,53,100,92,78,30.07,29.98,10,4,14,1.26
2013-10-12,71,65,60,59,54,50,82,69,64,30.22,30.04,10,4,16,0.00
2013-10-13,70,61,52,58,52,47,84,71,64,30.37,30.22,13,4,17,0.00
2013-10-14,70,56,44,58,50,43,100,81,64,30.37,30.25,6,1,8,0.00
2013-10-15,75,57,44,61,50,43,100,80,62,30.28,30.10,8,1,10,0.00
2013-10-16,67,58,50,59,55,46,100,88,70,30.10,29.93,4,0,5,0.00
2013-10-17,74,65,58,66,60,57,100,86,64,29.93,29.72,10,1,12,0.04
2013-10-18,66,58,46,58,49,41,84,72,66,30.01,29.75,10,3,18,0.00
2013-10-19,65,52,40,56,47,38,100,83,66,30.01,29.78,8,1,10,0.00
2013-10-20,63,52,42,54,45,38,100,77,68,30.10,29.81,10,3,17,0.04
2013-10-21,69,51,36,57,44,34,100,79,66,30.16,29.98,9,1,11,0.00
2013-10-22,64,52,40,53,46,35,100,80,68,29.98,29.78,7,1,11,0.00
2013-10-23,59,46,39,49,40,34,96,80,70,29.84,29.63,8,1,11,0.00
2013-10-24,52,42,33,44,36,30,100,82,74,30.07,29.81,11,2,16,0.00
2013-10-25,54,41,31,46,36,28,96,80,72,30.25,30.07,9,2,16,0.00
2013-10-26,57,43,30,47,37,28,98,80,70,30.25,29.90,12,2,16,0.00
2013-10-27,59,47,36,49,40,31,86,76,70,30.16,29.90,11,2,15,0.00
2013-10-28,63,44,31,53,38,28,94,79,68,30.31,30.16,5,1,11,0.00
2013-10-29,61,46,34,51,40,32,96,80,68,30.40,30.31,5,1,8,0.00
2013-10-30,61,51,40,53,47,37,98,87,70,30.37,30.19,4,0,7,0.00
2013-10-31,67,59,47,61,55,47,100,89,68,30.22,29.81,6,1,12,0.04
2013-11-1,69,63,52,64,57,50,100,82,66,29.81,29.57,15,3,25,0.39
2013-11-2,68,55,46,56,50,40,100,84,66,29.81,29.66,6,1,11,0.00
2013-11-3,52,44,33,44,38,28,94,78,72,30.46,29.81,10,3,15,0.00
2013-11-4,50,37,26,42,31,23,86,80,74,30.66,30.49,8,1,13,0.00
2013-11-5,59,45,31,49,39,28,88,78,70,30.63,30.49,6,1,10,0.00
2013-11-6,66,56,46,55,48,42,86,75,66,30.49,30.07,8,2,12,0.00
2013-11-7,61,54,43,58,49,38,96,84,74,30.07,29.81,9,2,15,0.04
2013-11-8,50,42,33,43,35,29,84,78,74,30.28,29.98,14,4,17,0.00
2013-11-9,53,40,28,44,34,26,98,81,72,30.34,30.01,9,1,12,0.00
2013-11-10,60,45,31,50,39,30,100,80,70,30.13,29.90,15,4,23,0.00
2013-11-11,55,48,34,46,40,29,82,75,72,30.25,29.98,15,4,15,0.00
2013-11-12,50,38,24,43,32,20,86,79,74,30.34,29.96,13,3,19,0.00
2013-11-13,44,30,22,37,26,19,86,82,76,30.43,30.31,11,3,17,0.00
2013-11-14,56,37,25,46,32,21,86,79,70,30.31,30.19,10,2,17,0.00
2013-11-15,59,40,28,49,34,24,88,80,70,30.25,30.16,4,0,6,0.00
2013-11-16,60,49,38,51,44,33,100,83,70,30.34,30.25,6,0,8,0.04
2013-11-17,68,58,50,58,52,46,100,82,66,30.25,29.78,8,2,10,0.00
2013-11-18,66,59,49,63,50,41,100,74,66,29.87,29.66,13,5,25,0.20
2013-11-19,49,43,31,41,36,26,82,77,74,30.37,29.87,12,5,22,0.00
2013-11-20,50,35,26,42,29,22,86,81,74,30.60,30.37,8,1,10,0.00
2013-11-21,54,39,23,45,33,20,86,79,72,30.60,30.40,6,1,10,0.00
2013-11-22,58,51,47,52,46,40,100,84,72,30.40,29.96,8,2,12,0.00
2013-11-23,53,41,29,46,35,24,84,78,74,30.10,29.98,14,6,26,0.00
2013-11-24,30,26,22,25,21,19,86,84,82,30.43,30.10,16,7,27,0.00
2013-11-25,36,27,18,31,23,15,88,84,80,30.52,30.34,8,2,11,0.00
2013-11-26,48,36,32,48,33,27,100,89,80,30.34,29.69,8,2,14,0.63
2013-11-27,61,42,32,61,40,27,100,92,80,29.84,29.42,13,5,24,1.22
2013-11-28,36,31,28,31,26,24,84,82,80,30.49,29.87,17,5,20,0.00
2013-11-29,40,30,23,34,26,20,94,83,78,30.72,30.46,9,1,14,0.00
2013-11-30,41,30,17,35,25,15,92,84,78,30.75,30.40,8,2,9,0.00
2013-12-1,48,37,26,40,32,24,92,81,74,30.37,30.04,5,0,8,0.00
2013-12-2,51,41,36,43,35,32,86,80,74,30.04,29.90,3,0,6,0.00
2013-12-3,54,42,33,45,36,29,86,81,72,30.01,29.90,6,1,8,0.00
2013-12-4,55,44,32,46,39,29,100,82,72,30.13,30.01,5,1,6,0.00
2013-12-5,58,53,49,58,53,43,100,97,80,30.10,29.93,5,1,8,0.00
2013-12-6,61,48,37,61,46,35,100,93,80,30.16,29.87,8,2,15,0.94
2013-12-7,39,36,31,37,32,26,100,86,78,30.52,30.10,8,2,15,0.08
2013-12-8,31,28,26,30,25,22,100,88,82,30.58,30.34,6,1,10,0.00
2013-12-9,36,34,30,36,34,30,100,100,100,30.34,30.01,6,1,10,0.28
2013-12-10,34,31,21,34,29,18,100,95,84,30.16,29.96,5,0,8,0.04
2013-12-11,34,23,14,28,20,12,92,87,80,30.37,30.19,8,1,13,0.04
2013-12-12,28,20,14,23,17,12,100,88,82,30.40,30.19,11,1,13,0.04
2013-12-13,36,26,14,31,22,11,90,85,80,30.34,30.16,11,2,21,0.00
2013-12-14,31,28,26,31,25,23,100,88,82,30.43,29.75,10,4,15,0.00
2013-12-15,38,33,28,34,30,25,100,89,80,29.87,29.57,10,3,21,0.43
2013-12-16,32,26,19,27,22,16,88,84,82,30.22,29.87,13,4,17,0.00
2013-12-17,30,25,20,27,22,18,92,87,84,30.22,29.96,5,1,9,0.00
2013-12-18,38,26,15,32,23,13,96,86,78,30.19,29.96,13,2,19,0.04
2013-12-19,49,31,18,41,27,15,94,84,74,30.19,30.04,6,1,8,0.16
2013-12-20,53,40,30,44,35,29,96,83,72,30.10,29.98,6,0,9,0.00
2013-12-21,64,48,35,53,42,33,100,84,68,30.01,29.90,7,1,10,0.00
2013-12-22,68,63,58,60,56,52,90,77,70,29.96,29.81,14,4,19,0.04
2013-12-23,60,54,41,59,51,34,100,90,76,30.19,29.93,8,2,15,0.79
2013-12-24,40,34,26,34,29,22,84,81,78,30.40,30.13,13,5,19,0.00
2013-12-25,29,25,20,24,21,16,86,84,82,30.55,30.40,8,2,11,0.00
2013-12-26,38,28,22,32,24,19,90,85,78,30.40,30.19,8,1,13,0.00
2013-12-27,46,30,20,39,25,17,90,84,76,30.37,30.28,13,2,13,0.00
2013-12-28,58,38,22,48,32,20,94,81,70,30.31,30.10,13,2,17,0.00
2013-12-29,43,40,35,43,37,30,100,91,76,30.10,29.45,10,2,12,0.87
2013-12-30,44,37,27,41,33,23,100,87,76,30.16,29.75,16,3,19,0.00
2013-12-31,35,28,23,30,24,19,86,83,80,30.31,30.07,13,3,21,0.00
2014-1-1,37,30,21,32,25,17,86,83,78,30.40,30.22,6,2,9,0.00
2014-1-2,32,28,19,27,24,17,94,85,82,30.19,29.66,9,4,15,0.00